Time,TemperatureF,DewpointF,PressureIn,WindDirection,WindDirectionDegrees,WindSpeedMPH,WindSpeedGustMPH,Humidity,HourlyPrecipIn,Conditions,Clouds,dailyrainin,SoftwareType,DateUTC
2013-04-29 00:03:00,49.5,32.6,30.15,SSE,158,0.0,3.4,52,0.00,,,0.00,WUHU216HW,2013-04-29 04:03:00,
2013-04-29 00:08:00,49.3,32.9,30.15,South,180,1.8,1.8,53,0.00,,,0.00,WUHU216HW,2013-04-29 04:08:00,
2013-04-29 00:13:00,49.3,32.9,30.15,South,180,0.7,1.8,53,0.00,,,0.00,WUHU216HW,2013-04-29 04:13:00,
2013-04-29 00:18:00,49.1,32.7,30.15,SSE,158,1.3,1.3,53,0.00,,,0.00,WUHU216HW,2013-04-29 04:18:00,
2013-04-29 00:23:00,49.1,32.7,30.15,SSE,158,0.0,2.0,53,0.00,,,0.00,WUHU216HW,2013-04-29 04:23:00,
2013-04-29 00:28:00,49.0,32.5,30.15,SSE,158,0.0,2.0,53,0.00,,,0.00,WUHU216HW,2013-04-29 04:28:00,
2013-04-29 00:33:00,49.0,32.5,30.15,SE,135,0.0,1.1,53,0.00,,,0.00,WUHU216HW,2013-04-29 04:33:00,
2013-04-29 00:38:00,49.0,32.5,30.15,SE,135,0.2,1.1,53,0.00,,,0.00,WUHU216HW,2013-04-29 04:38:00,
2013-04-29 00:43:00,49.0,32.9,30.15,SE,135,0.2,0.9,54,0.00,,,0.00,WUHU216HW,2013-04-29 04:43:00,
2013-04-29 00:48:00,48.8,32.9,30.15,SSE,158,0.0,0.9,54,0.00,,,0.00,WUHU216HW,2013-04-29 04:48:00,
2013-04-29 00:53:00,49.0,32.9,30.15,SSE,158,0.0,1.1,54,0.00,,,0.00,WUHU216HW,2013-04-29 04:53:00,
2013-04-29 00:58:00,48.8,33.3,30.15,SSE,158,0.0,1.3,55,0.00,,,0.00,WUHU216HW,2013-04-29 04:58:00,
2013-04-29 01:03:00,48.8,33.8,30.15,SSE,158,0.0,1.3,56,0.00,,,0.00,WUHU216HW,2013-04-29 05:03:00,
2013-04-29 01:08:00,48.8,33.8,30.15,SSE,158,0.0,0.9,56,0.00,,,0.00,WUHU216HW,2013-04-29 05:08:00,
2013-04-29 01:13:00,48.6,33.6,30.15,South,180,1.3,1.3,56,0.00,,,0.00,WUHU216HW,2013-04-29 05:13:00,
2013-04-29 01:18:00,48.6,34.0,30.15,South,180,0.0,1.3,57,0.00,,,0.00,WUHU216HW,2013-04-29 05:18:00,
2013-04-29 01:23:00,48.6,34.0,30.15,South,180,0.0,1.8,57,0.00,,,0.00,WUHU216HW,2013-04-29 05:23:00,
2013-04-29 01:28:00,48.6,34.5,30.15,South,180,0.0,1.8,58,0.00,,,0.00,WUHU216HW,2013-04-29 05:28:00,
2013-04-29 01:33:00,48.6,34.9,30.14,South,180,0.9,0.9,59,0.00,,,0.00,WUHU216HW,2013-04-29 05:33:00,
2013-04-29 01:38:00,48.4,34.8,30.14,South,180,0.0,0.9,59,0.00,,,0.00,WUHU216HW,2013-04-29 05:38:00,
2013-04-29 01:43:00,48.4,34.8,30.14,South,180,0.2,0.2,59,0.00,,,0.00,WUHU216HW,2013-04-29 05:43:00,
2013-04-29 01:48:00,48.2,35.1,30.14,South,180,0.0,0.4,60,0.00,,,0.00,WUHU216HW,2013-04-29 05:48:00,
2013-04-29 01:53:00,48.2,35.5,30.14,South,180,0.4,0.9,61,0.00,,,0.00,WUHU216HW,2013-04-29 05:53:00,
2013-04-29 01:58:00,48.2,35.5,30.14,South,180,0.0,1.1,61,0.00,,,0.00,WUHU216HW,2013-04-29 05:58:00,
2013-04-29 02:03:00,48.1,35.6,30.14,South,180,0.0,1.1,62,0.00,,,0.00,WUHU216HW,2013-04-29 06:03:00,
2013-04-29 02:08:00,48.1,36.1,30.14,SSW,203,2.0,2.0,63,0.00,,,0.00,WUHU216HW,2013-04-29 06:08:00,
2013-04-29 02:13:00,48.1,36.1,30.14,SSW,203,0.2,2.0,63,0.00,,,0.00,WUHU216HW,2013-04-29 06:13:00,
2013-04-29 02:18:00,48.2,36.6,30.13,SSW,203,0.0,1.1,64,0.00,,,0.00,WUHU216HW,2013-04-29 06:18:00,
2013-04-29 02:23:00,48.1,36.5,30.13,SSW,203,1.6,1.6,64,0.00,,,0.00,WUHU216HW,2013-04-29 06:23:00,
2013-04-29 02:28:00,48.1,36.8,30.13,SSW,203,0.0,1.6,65,0.00,,,0.00,WUHU216HW,2013-04-29 06:28:00,
2013-04-29 02:33:00,48.1,37.2,30.13,SSW,203,0.0,1.1,66,0.00,,,0.00,WUHU216HW,2013-04-29 06:33:00,
2013-04-29 02:38:00,48.1,37.6,30.13,South,180,0.0,1.3,67,0.00,,,0.00,WUHU216HW,2013-04-29 06:38:00,
2013-04-29 02:43:00,48.4,38.7,30.12,South,180,0.4,1.6,69,0.00,,,0.00,WUHU216HW,2013-04-29 06:43:00,
2013-04-29 02:48:00,48.4,38.7,30.12,South,180,0.0,1.8,69,0.00,,,0.00,WUHU216HW,2013-04-29 06:48:00,
2013-04-29 02:53:00,48.6,39.2,30.12,South,180,0.2,1.8,70,0.00,,,0.00,WUHU216HW,2013-04-29 06:53:00,
2013-04-29 02:58:00,48.6,39.2,30.12,SSW,203,0.0,1.1,70,0.00,,,0.00,WUHU216HW,2013-04-29 06:58:00,
2013-04-29 03:03:00,48.8,39.8,30.12,West,270,0.7,1.1,71,0.00,,,0.00,WUHU216HW,2013-04-29 07:03:00,
2013-04-29 03:08:00,48.8,39.8,30.12,South,180,0.4,1.8,71,0.00,,,0.00,WUHU216HW,2013-04-29 07:08:00,
2013-04-29 03:13:00,48.8,40.2,30.12,South,180,0.0,1.8,72,0.00,,,0.00,WUHU216HW,2013-04-29 07:13:00,
2013-04-29 03:18:00,49.0,40.3,30.12,SSE,158,1.6,1.6,72,0.00,,,0.00,WUHU216HW,2013-04-29 07:18:00,
2013-04-29 03:23:00,49.0,40.3,30.12,SSW,203,1.8,1.8,72,0.00,,,0.00,WUHU216HW,2013-04-29 07:23:00,
2013-04-29 03:28:00,49.0,40.6,30.12,SSW,203,0.4,1.8,73,0.00,,,0.00,WUHU216HW,2013-04-29 07:28:00,
2013-04-29 03:33:00,49.0,41.0,30.12,SSW,203,0.0,0.7,74,0.00,,,0.00,WUHU216HW,2013-04-29 07:33:00,
2013-04-29 03:38:00,49.0,41.0,30.12,SSW,203,0.2,0.7,74,0.00,,,0.00,WUHU216HW,2013-04-29 07:38:00,
2013-04-29 03:43:00,49.0,41.0,30.12,SSW,203,0.4,0.7,74,0.00,,,0.00,WUHU216HW,2013-04-29 07:43:00,
2013-04-29 03:48:00,49.0,41.3,30.12,SSW,203,0.0,0.9,75,0.00,,,0.00,WUHU216HW,2013-04-29 07:48:00,
2013-04-29 03:53:00,49.1,41.5,30.12,SSW,203,0.0,1.6,75,0.00,,,0.00,WUHU216HW,2013-04-29 07:53:00,
2013-04-29 03:58:00,49.1,41.9,30.12,SSW,203,0.0,1.6,76,0.00,,,0.00,WUHU216HW,2013-04-29 07:58:00,
2013-04-29 04:03:00,49.1,41.9,30.12,SSW,203,0.4,1.6,76,0.00,,,0.00,WUHU216HW,2013-04-29 08:03:00,
2013-04-29 04:08:00,49.1,41.9,30.12,SSW,203,0.0,1.6,76,0.00,,,0.00,WUHU216HW,2013-04-29 08:08:00,
2013-04-29 04:13:00,49.3,42.4,30.12,SW,225,0.0,1.3,77,0.00,,,0.00,WUHU216HW,2013-04-29 08:13:00,
2013-04-29 04:18:00,49.3,42.4,30.12,SW,225,0.4,1.8,77,0.00,,,0.00,WUHU216HW,2013-04-29 08:18:00,
2013-04-29 04:23:00,49.3,42.4,30.12,SW,225,0.0,1.8,77,0.00,,,0.00,WUHU216HW,2013-04-29 08:23:00,
2013-04-29 04:28:00,49.3,42.4,30.12,SW,225,0.0,0.9,77,0.00,,,0.00,WUHU216HW,2013-04-29 08:28:00,
2013-04-29 04:33:00,49.3,42.7,30.12,SW,225,1.1,1.1,78,0.00,,,0.00,WUHU216HW,2013-04-29 08:33:00,
2013-04-29 04:38:00,49.5,42.6,30.12,SW,225,0.7,1.1,77,0.00,,,0.00,WUHU216HW,2013-04-29 08:38:00,
2013-04-29 04:43:00,49.5,42.8,30.12,SW,225,1.1,1.1,78,0.00,,,0.00,WUHU216HW,2013-04-29 08:43:00,
2013-04-29 04:48:00,49.5,42.8,30.12,SW,225,0.0,1.1,78,0.00,,,0.00,WUHU216HW,2013-04-29 08:48:00,
2013-04-29 04:53:00,49.5,42.8,30.12,SW,225,0.0,0.4,78,0.00,,,0.00,WUHU216HW,2013-04-29 08:53:00,
2013-04-29 04:58:00,49.3,42.7,30.12,SW,225,0.0,0.0,78,0.00,,,0.00,WUHU216HW,2013-04-29 08:58:00,
2013-04-29 05:03:00,49.3,42.7,30.12,NE,45,0.0,0.4,78,0.00,,,0.00,WUHU216HW,2013-04-29 09:03:00,
2013-04-29 05:08:00,49.3,42.7,30.12,NE,45,0.0,0.4,78,0.00,,,0.00,WUHU216HW,2013-04-29 09:08:00,
2013-04-29 05:13:00,49.3,43.0,30.12,SE,135,0.0,0.9,79,0.00,,,0.00,WUHU216HW,2013-04-29 09:13:00,
2013-04-29 05:18:00,49.3,43.0,30.12,SE,135,0.4,0.9,79,0.00,,,0.00,WUHU216HW,2013-04-29 09:18:00,
2013-04-29 05:23:00,49.3,43.0,30.12,SE,135,0.9,0.9,79,0.00,,,0.00,WUHU216HW,2013-04-29 09:23:00,
2013-04-29 05:28:00,49.3,43.0,30.12,SE,135,0.0,0.9,79,0.00,,,0.00,WUHU216HW,2013-04-29 09:28:00,
2013-04-29 05:33:00,49.3,43.0,30.12,SE,135,0.0,0.4,79,0.00,,,0.00,WUHU216HW,2013-04-29 09:33:00,
2013-04-29 05:39:00,49.5,43.2,30.12,ESE,113,0.0,1.1,79,0.00,,,0.00,WUHU216HW,2013-04-29 09:39:00,
2013-04-29 05:44:00,49.5,43.6,30.12,ESE,113,0.0,1.1,80,0.00,,,0.00,WUHU216HW,2013-04-29 09:44:00,
2013-04-29 05:49:00,49.7,43.7,30.12,East,90,0.4,0.7,80,0.00,,,0.00,WUHU216HW,2013-04-29 09:49:00,
2013-04-29 05:54:00,49.7,43.7,30.12,East,90,0.4,0.7,80,0.00,,,0.00,WUHU216HW,2013-04-29 09:54:00,
2013-04-29 05:59:00,50.0,44.1,30.13,ENE,68,1.1,1.1,80,0.00,,,0.00,WUHU216HW,2013-04-29 09:59:00,
2013-04-29 06:04:00,50.0,44.4,30.13,ENE,68,0.4,1.1,81,0.00,,,0.00,WUHU216HW,2013-04-29 10:04:00,
2013-04-29 06:09:00,50.0,44.1,30.13,ENE,68,0.4,1.1,80,0.00,,,0.00,WUHU216HW,2013-04-29 10:09:00,
2013-04-29 06:14:00,50.0,44.1,30.13,ENE,68,0.0,1.1,80,0.00,,,0.00,WUHU216HW,2013-04-29 10:14:00,
2013-04-29 06:19:00,50.0,44.1,30.13,ENE,68,0.0,0.0,80,0.00,,,0.00,WUHU216HW,2013-04-29 10:19:00,
2013-04-29 06:24:00,50.0,44.4,30.13,ENE,68,0.4,0.7,81,0.00,,,0.00,WUHU216HW,2013-04-29 10:24:00,
2013-04-29 06:29:00,50.0,44.1,30.13,ENE,68,0.4,0.7,80,0.00,,,0.00,WUHU216HW,2013-04-29 10:29:00,
2013-04-29 06:34:00,50.2,44.3,30.13,ENE,68,0.9,0.9,80,0.00,,,0.00,WUHU216HW,2013-04-29 10:34:00,
2013-04-29 06:39:00,50.2,44.3,30.14,SSE,158,0.0,2.2,80,0.00,,,0.00,WUHU216HW,2013-04-29 10:39:00,
2013-04-29 06:44:00,50.2,44.3,30.14,SSE,158,0.9,2.2,80,0.00,,,0.00,WUHU216HW,2013-04-29 10:44:00,
2013-04-29 06:49:00,50.2,44.3,30.14,SSE,158,0.0,0.9,80,0.00,,,0.00,WUHU216HW,2013-04-29 10:49:00,
2013-04-29 06:54:00,50.4,44.5,30.14,ESE,113,1.1,1.6,80,0.00,,,0.00,WUHU216HW,2013-04-29 10:54:00,
2013-04-29 06:59:00,50.4,44.5,30.14,SE,135,0.0,1.6,80,0.00,,,0.00,WUHU216HW,2013-04-29 10:59:00,
2013-04-29 07:04:00,50.6,44.6,30.14,East,90,0.4,1.1,80,0.00,,,0.00,WUHU216HW,2013-04-29 11:04:00,
2013-04-29 07:09:00,50.6,44.6,30.14,East,90,1.1,1.3,80,0.00,,,0.00,WUHU216HW,2013-04-29 11:09:00,
2013-04-29 07:14:00,50.6,44.6,30.14,ESE,113,0.0,1.3,80,0.00,,,0.00,WUHU216HW,2013-04-29 11:14:00,
2013-04-29 07:19:00,50.8,44.8,30.14,ENE,68,1.1,1.1,80,0.00,,,0.00,WUHU216HW,2013-04-29 11:19:00,
2013-04-29 07:24:00,50.9,45.0,30.15,East,90,0.0,1.1,80,0.00,,,0.00,WUHU216HW,2013-04-29 11:24:00,
2013-04-29 07:29:00,51.3,45.4,30.14,East,90,0.0,1.8,80,0.00,,,0.00,WUHU216HW,2013-04-29 11:29:00,
2013-04-29 07:34:00,51.5,45.5,30.14,ENE,68,1.8,1.8,80,0.00,,,0.00,WUHU216HW,2013-04-29 11:34:00,
2013-04-29 07:39:00,52.0,46.1,30.14,East,90,0.9,2.7,80,0.00,,,0.00,WUHU216HW,2013-04-29 11:39:00,
2013-04-29 07:44:00,52.6,46.6,30.14,ESE,113,0.4,2.7,80,0.00,,,0.00,WUHU216HW,2013-04-29 11:44:00,
2013-04-29 07:49:00,53.5,47.5,30.14,East,90,1.6,2.5,80,0.00,,,0.00,WUHU216HW,2013-04-29 11:49:00,
2013-04-29 07:54:00,54.4,48.0,30.14,SSW,203,2.5,2.5,79,0.00,,,0.00,WUHU216HW,2013-04-29 11:54:00,
2013-04-29 07:59:00,54.7,48.0,30.14,SE,135,0.7,3.4,78,0.00,,,0.00,WUHU216HW,2013-04-29 11:59:00,
2013-04-29 08:04:00,54.7,47.6,30.14,South,180,1.1,3.4,77,0.00,,,0.00,WUHU216HW,2013-04-29 12:04:00,
2013-04-29 08:09:00,54.7,47.6,30.15,SSE,158,1.3,2.7,77,0.00,,,0.00,WUHU216HW,2013-04-29 12:09:00,
2013-04-29 08:14:00,54.7,47.6,30.15,WSW,248,1.1,3.8,77,0.00,,,0.00,WUHU216HW,2013-04-29 12:14:00,
2013-04-29 08:19:00,54.9,47.8,30.15,SSE,158,1.1,3.8,77,0.00,,,0.00,WUHU216HW,2013-04-29 12:19:00,
2013-04-29 08:24:00,55.1,48.0,30.14,SSE,158,2.2,3.4,77,0.00,,,0.00,WUHU216HW,2013-04-29 12:24:00,
2013-04-29 08:29:00,55.3,47.8,30.14,South,180,3.4,3.6,76,0.00,,,0.00,WUHU216HW,2013-04-29 12:29:00,
2013-04-29 08:34:00,55.4,48.0,30.14,ESE,113,1.1,3.6,76,0.00,,,0.00,WUHU216HW,2013-04-29 12:34:00,
2013-04-29 08:39:00,55.6,48.2,30.14,ESE,113,1.1,4.7,76,0.00,,,0.00,WUHU216HW,2013-04-29 12:39:00,
2013-04-29 08:44:00,55.8,48.3,30.14,SSE,158,6.3,6.3,76,0.00,,,0.00,WUHU216HW,2013-04-29 12:44:00,
2013-04-29 08:49:00,55.8,48.3,30.14,SE,135,1.1,6.3,76,0.00,,,0.00,WUHU216HW,2013-04-29 12:49:00,
2013-04-29 08:54:00,56.2,48.3,30.14,South,180,1.8,4.0,75,0.00,,,0.00,WUHU216HW,2013-04-29 12:54:00,
2013-04-29 08:59:00,56.3,48.5,30.14,SSE,158,2.0,4.0,75,0.00,,,0.00,WUHU216HW,2013-04-29 12:59:00,
2013-04-29 09:04:00,56.2,48.3,30.15,ESE,113,1.1,2.5,75,0.00,,,0.00,WUHU216HW,2013-04-29 13:04:00,
2013-04-29 09:09:00,56.0,48.2,30.14,SW,225,2.7,2.7,75,0.00,,,0.00,WUHU216HW,2013-04-29 13:09:00,
2013-04-29 09:14:00,55.8,48.0,30.14,SW,225,0.7,2.7,75,0.00,,,0.00,WUHU216HW,2013-04-29 13:14:00,
2013-04-29 09:19:00,55.8,48.3,30.14,SE,135,3.4,3.4,76,0.00,,,0.00,WUHU216HW,2013-04-29 13:19:00,
2013-04-29 09:24:00,55.8,48.3,30.14,SE,135,1.8,3.4,76,0.00,,,0.00,WUHU216HW,2013-04-29 13:24:00,
2013-04-29 09:29:00,55.8,48.3,30.14,WSW,248,2.2,2.5,76,0.00,,,0.00,WUHU216HW,2013-04-29 13:29:00,
2013-04-29 09:34:00,55.8,48.3,30.14,SE,135,1.8,2.5,76,0.00,,,0.00,WUHU216HW,2013-04-29 13:34:00,
2013-04-29 09:39:00,56.2,48.3,30.15,SW,225,1.3,3.4,75,0.00,,,0.00,WUHU216HW,2013-04-29 13:39:00,
2013-04-29 09:44:00,56.3,48.5,30.15,SE,135,1.6,3.4,75,0.00,,,0.00,WUHU216HW,2013-04-29 13:44:00,
2013-04-29 09:49:00,56.2,48.3,30.15,SSW,203,2.5,2.5,75,0.00,,,0.00,WUHU216HW,2013-04-29 13:49:00,
2013-04-29 09:54:00,56.3,48.2,30.15,SSE,158,1.6,3.4,74,0.00,,,0.00,WUHU216HW,2013-04-29 13:54:00,
2013-04-29 09:59:00,56.3,48.2,30.15,SSE,158,2.0,3.4,74,0.00,,,0.00,WUHU216HW,2013-04-29 13:59:00,
2013-04-29 10:04:00,56.5,48.2,30.15,South,180,2.0,3.4,74,0.00,,,0.00,WUHU216HW,2013-04-29 14:04:00,
2013-04-29 10:09:00,56.5,48.0,30.15,West,270,1.8,4.0,73,0.00,,,0.00,WUHU216HW,2013-04-29 14:09:00,
2013-04-29 10:14:00,56.5,48.0,30.15,SSE,158,4.0,4.0,73,0.00,,,0.00,WUHU216HW,2013-04-29 14:14:00,
2013-04-29 10:19:00,56.5,48.0,30.15,SSW,203,1.3,4.0,73,0.00,,,0.00,WUHU216HW,2013-04-29 14:19:00,
2013-04-29 10:24:00,56.7,48.1,30.15,South,180,3.1,4.0,73,0.00,,,0.00,WUHU216HW,2013-04-29 14:24:00,
2013-04-29 10:29:00,56.7,48.1,30.15,SSE,158,2.0,3.8,73,0.00,,,0.00,WUHU216HW,2013-04-29 14:29:00,
2013-04-29 10:34:00,57.1,48.4,30.15,WSW,248,3.4,3.8,73,0.00,,,0.00,WUHU216HW,2013-04-29 14:34:00,
2013-04-29 10:39:00,56.9,47.9,30.15,WSW,248,3.1,3.4,72,0.00,,,0.00,WUHU216HW,2013-04-29 14:39:00,
2013-04-29 10:44:00,57.1,48.1,30.15,SSE,158,1.3,3.4,72,0.00,,,0.00,WUHU216HW,2013-04-29 14:44:00,
2013-04-29 10:49:00,57.1,48.1,30.15,SSE,158,2.5,4.7,72,0.00,,,0.00,WUHU216HW,2013-04-29 14:49:00,
2013-04-29 10:54:00,56.7,47.4,30.15,SSE,158,2.7,5.1,71,0.00,,,0.00,WUHU216HW,2013-04-29 14:54:00,
2013-04-29 10:59:00,56.5,47.6,30.15,SSE,158,2.5,5.1,72,0.00,,,0.00,WUHU216HW,2013-04-29 14:59:00,
2013-04-29 11:04:00,56.5,47.6,30.15,ESE,113,1.3,4.7,72,0.00,,,0.00,WUHU216HW,2013-04-29 15:04:00,
2013-04-29 11:09:00,56.5,48.0,30.15,SSE,158,1.3,4.7,73,0.00,,,0.00,WUHU216HW,2013-04-29 15:09:00,
2013-04-29 11:14:00,56.9,47.9,30.15,ESE,113,3.4,4.5,72,0.00,,,0.00,WUHU216HW,2013-04-29 15:14:00,
2013-04-29 11:19:00,56.7,47.7,30.15,South,180,2.2,4.5,72,0.00,,,0.00,WUHU216HW,2013-04-29 15:19:00,
2013-04-29 11:24:00,56.7,47.7,30.15,SSE,158,4.0,6.7,72,0.00,,,0.00,WUHU216HW,2013-04-29 15:24:00,
2013-04-29 11:29:00,56.9,47.9,30.15,South,180,1.8,6.7,72,0.00,,,0.00,WUHU216HW,2013-04-29 15:29:00,
2013-04-29 11:34:00,57.2,48.2,30.15,SSE,158,2.2,4.7,72,0.00,,,0.00,WUHU216HW,2013-04-29 15:34:00,
2013-04-29 11:39:00,57.2,47.5,30.15,SE,135,3.8,5.8,70,0.00,,,0.00,WUHU216HW,2013-04-29 15:39:00,
2013-04-29 11:44:00,57.4,47.7,30.15,South,180,2.2,5.8,70,0.00,,,0.00,WUHU216HW,2013-04-29 15:44:00,
2013-04-29 11:49:00,58.0,48.2,30.14,South,180,5.4,5.4,70,0.00,,,0.00,WUHU216HW,2013-04-29 15:49:00,
2013-04-29 11:54:00,58.3,47.8,30.14,SSE,158,2.2,5.4,68,0.00,,,0.00,WUHU216HW,2013-04-29 15:54:00,
2013-04-29 11:59:00,58.5,47.2,30.14,SSE,158,1.6,5.1,66,0.00,,,0.00,WUHU216HW,2013-04-29 15:59:00,
2013-04-29 12:04:00,58.7,47.4,30.14,SSW,203,2.5,4.9,66,0.00,,,0.00,WUHU216HW,2013-04-29 16:04:00,
2013-04-29 12:09:00,58.7,46.9,30.14,SE,135,2.2,4.0,65,0.00,,,0.00,WUHU216HW,2013-04-29 16:09:00,
2013-04-29 12:14:00,58.7,46.9,30.14,SW,225,1.8,4.0,65,0.00,,,0.00,WUHU216HW,2013-04-29 16:14:00,
2013-04-29 12:19:00,58.5,46.7,30.14,South,180,4.7,4.7,65,0.00,,,0.00,WUHU216HW,2013-04-29 16:19:00,
2013-04-29 12:24:00,58.0,45.8,30.14,ESE,113,4.3,6.9,64,0.00,,,0.00,WUHU216HW,2013-04-29 16:24:00,
2013-04-29 12:29:00,57.8,46.1,30.14,SW,225,1.6,6.9,65,0.00,,,0.00,WUHU216HW,2013-04-29 16:29:00,
2013-04-29 12:34:00,57.8,46.1,30.13,SSW,203,2.5,3.6,65,0.00,,,0.00,WUHU216HW,2013-04-29 16:34:00,
2013-04-29 12:39:00,57.8,46.1,30.13,SE,135,2.7,4.0,65,0.00,,,0.00,WUHU216HW,2013-04-29 16:39:00,
2013-04-29 12:44:00,57.8,46.1,30.14,ESE,113,3.4,4.0,65,0.00,,,0.00,WUHU216HW,2013-04-29 16:44:00,
2013-04-29 12:49:00,57.6,45.5,30.13,SE,135,1.6,5.8,64,0.00,,,0.00,WUHU216HW,2013-04-29 16:49:00,
2013-04-29 12:54:00,57.1,45.0,30.13,ESE,113,4.0,6.7,64,0.00,,,0.00,WUHU216HW,2013-04-29 16:54:00,
2013-04-29 12:59:00,56.9,44.8,30.13,SE,135,2.5,6.7,64,0.00,,,0.00,WUHU216HW,2013-04-29 16:59:00,
2013-04-29 13:04:00,56.9,45.2,30.13,SW,225,1.1,4.0,65,0.00,,,0.00,WUHU216HW,2013-04-29 17:04:00,
2013-04-29 13:09:00,56.9,45.2,30.13,South,180,3.1,4.0,65,0.00,,,0.00,WUHU216HW,2013-04-29 17:09:00,
2013-04-29 13:14:00,56.9,45.2,30.13,South,180,3.4,4.0,65,0.00,,,0.00,WUHU216HW,2013-04-29 17:14:00,
2013-04-29 13:19:00,56.9,44.8,30.13,ENE,68,2.0,3.4,64,0.00,,,0.00,WUHU216HW,2013-04-29 17:19:00,
2013-04-29 13:25:00,56.9,45.2,30.13,SE,135,1.8,4.0,65,0.00,,,0.00,WUHU216HW,2013-04-29 17:25:00,
2013-04-29 13:30:00,56.9,45.2,30.13,ESE,113,2.5,4.0,65,0.00,,,0.00,WUHU216HW,2013-04-29 17:30:00,
2013-04-29 13:35:00,56.9,44.8,30.13,NE,45,2.9,3.4,64,0.00,,,0.00,WUHU216HW,2013-04-29 17:35:00,
2013-04-29 13:40:00,56.5,44.8,30.13,SSE,158,3.1,3.4,65,0.00,,,0.00,WUHU216HW,2013-04-29 17:40:00,
2013-04-29 13:45:00,56.3,45.1,30.13,SE,135,2.5,3.6,66,0.00,,,0.00,WUHU216HW,2013-04-29 17:45:00,
2013-04-29 13:50:00,56.5,45.3,30.13,NNE,23,2.0,3.6,66,0.00,,,0.00,WUHU216HW,2013-04-29 17:50:00,
2013-04-29 13:55:00,56.3,45.1,30.13,ENE,68,2.2,4.7,66,0.00,,,0.00,WUHU216HW,2013-04-29 17:55:00,
2013-04-29 14:00:00,56.2,44.9,30.13,SSE,158,1.6,4.7,66,0.00,,,0.00,WUHU216HW,2013-04-29 18:00:00,
2013-04-29 14:05:00,56.2,44.9,30.13,SSW,203,1.6,4.7,66,0.00,,,0.00,WUHU216HW,2013-04-29 18:05:00,
2013-04-29 14:10:00,56.3,45.1,30.13,SSE,158,0.4,4.7,66,0.00,,,0.00,WUHU216HW,2013-04-29 18:10:00,
2013-04-29 14:15:00,56.3,45.1,30.13,SSW,203,0.9,5.1,66,0.00,,,0.00,WUHU216HW,2013-04-29 18:15:00,
2013-04-29 14:20:00,56.5,45.3,30.13,South,180,2.7,5.1,66,0.00,,,0.00,WUHU216HW,2013-04-29 18:20:00,
2013-04-29 14:25:00,56.3,45.1,30.13,SSE,158,0.9,4.7,66,0.00,,,0.00,WUHU216HW,2013-04-29 18:25:00,
2013-04-29 14:30:00,56.5,45.3,30.13,ENE,68,1.6,3.1,66,0.00,,,0.00,WUHU216HW,2013-04-29 18:30:00,
2013-04-29 14:35:00,56.7,45.5,30.13,WNW,293,1.8,3.1,66,0.00,,,0.00,WUHU216HW,2013-04-29 18:35:00,
2013-04-29 14:40:00,57.1,45.4,30.13,SE,135,1.3,3.4,65,0.00,,,0.00,WUHU216HW,2013-04-29 18:40:00,
2013-04-29 14:45:00,57.2,45.2,30.13,SE,135,4.0,4.0,64,0.00,,,0.00,WUHU216HW,2013-04-29 18:45:00,
2013-04-29 14:50:00,57.2,44.7,30.13,East,90,2.7,4.9,63,0.00,,,0.00,WUHU216HW,2013-04-29 18:50:00,
2013-04-29 14:55:00,57.2,45.2,30.13,East,90,0.7,4.9,64,0.00,,,0.00,WUHU216HW,2013-04-29 18:55:00,
2013-04-29 15:00:00,57.2,45.2,30.12,ESE,113,1.1,7.6,64,0.00,,,0.00,WUHU216HW,2013-04-29 19:00:00,
2013-04-29 15:05:00,57.2,45.2,30.12,WSW,248,4.0,7.6,64,0.00,,,0.00,WUHU216HW,2013-04-29 19:05:00,
2013-04-29 15:10:00,57.2,45.2,30.12,ESE,113,3.4,4.0,64,0.00,,,0.00,WUHU216HW,2013-04-29 19:10:00,
2013-04-29 15:15:00,57.2,45.2,30.12,WSW,248,1.1,4.3,64,0.00,,,0.00,WUHU216HW,2013-04-29 19:15:00,
2013-04-29 15:20:00,57.6,45.5,30.12,South,180,3.1,4.3,64,0.00,,,0.00,WUHU216HW,2013-04-29 19:20:00,
2013-04-29 15:25:00,57.4,45.3,30.12,South,180,0.7,3.8,64,0.00,,,0.00,WUHU216HW,2013-04-29 19:25:00,
2013-04-29 15:30:00,57.4,45.3,30.12,ESE,113,1.6,3.4,64,0.00,,,0.00,WUHU216HW,2013-04-29 19:30:00,
2013-04-29 15:35:00,57.2,45.2,30.12,NE,45,2.0,3.4,64,0.00,,,0.00,WUHU216HW,2013-04-29 19:35:00,
2013-04-29 15:40:00,57.6,45.5,30.12,South,180,1.1,2.0,64,0.00,,,0.00,WUHU216HW,2013-04-29 19:40:00,
2013-04-29 15:45:00,58.0,46.3,30.12,SE,135,4.3,4.3,65,0.00,,,0.00,WUHU216HW,2013-04-29 19:45:00,
2013-04-29 15:50:00,58.0,45.8,30.12,SSE,158,1.1,4.3,64,0.00,,,0.00,WUHU216HW,2013-04-29 19:50:00,
2013-04-29 15:55:00,57.6,45.5,30.11,NE,45,3.4,3.4,64,0.00,,,0.00,WUHU216HW,2013-04-29 19:55:00,
2013-04-29 16:00:00,57.6,45.9,30.11,South,180,1.8,3.4,65,0.00,,,0.00,WUHU216HW,2013-04-29 20:00:00,
2013-04-29 16:05:00,57.2,45.2,30.11,SE,135,2.9,3.1,64,0.00,,,0.00,WUHU216HW,2013-04-29 20:05:00,
2013-04-29 16:10:00,57.2,45.5,30.11,SSE,158,1.1,2.9,65,0.00,,,0.00,WUHU216HW,2013-04-29 20:10:00,
2013-04-29 16:15:00,57.2,45.5,30.11,SSW,203,4.7,4.7,65,0.00,,,0.00,WUHU216HW,2013-04-29 20:15:00,
2013-04-29 16:20:00,57.1,45.4,30.11,SE,135,1.1,4.7,65,0.00,,,0.00,WUHU216HW,2013-04-29 20:20:00,
2013-04-29 16:25:00,56.9,45.2,30.11,SSE,158,0.4,2.5,65,0.00,,,0.00,WUHU216HW,2013-04-29 20:25:00,
2013-04-29 16:30:00,56.7,45.0,30.11,SE,135,1.3,3.4,65,0.00,,,0.00,WUHU216HW,2013-04-29 20:30:00,
2013-04-29 16:35:00,56.7,45.0,30.11,East,90,2.5,3.4,65,0.00,,,0.00,WUHU216HW,2013-04-29 20:35:00,
2013-04-29 16:40:00,56.5,45.3,30.11,South,180,1.8,2.5,66,0.00,,,0.00,WUHU216HW,2013-04-29 20:40:00,
2013-04-29 16:45:00,56.3,45.1,30.11,East,90,3.4,4.5,66,0.00,,,0.00,WUHU216HW,2013-04-29 20:45:00,
2013-04-29 16:50:00,56.3,45.1,30.11,South,180,6.9,6.9,66,0.00,,,0.00,WUHU216HW,2013-04-29 20:50:00,
2013-04-29 16:55:00,56.3,45.5,30.11,SW,225,2.5,6.9,67,0.00,,,0.00,WUHU216HW,2013-04-29 20:55:00,
2013-04-29 17:00:00,56.3,45.1,30.12,SSE,158,1.1,3.6,66,0.00,,,0.00,WUHU216HW,2013-04-29 21:00:00,
2013-04-29 17:05:00,56.2,45.4,30.12,South,180,4.3,4.3,67,0.00,,,0.00,WUHU216HW,2013-04-29 21:05:00,
2013-04-29 17:10:00,56.0,45.2,30.12,South,180,3.6,4.3,67,0.00,,,0.00,WUHU216HW,2013-04-29 21:10:00,
2013-04-29 17:15:00,55.8,45.0,30.11,SE,135,3.1,4.0,67,0.00,,,0.00,WUHU216HW,2013-04-29 21:15:00,
2013-04-29 17:20:00,55.8,45.0,30.12,SE,135,1.8,4.0,67,0.00,,,0.00,WUHU216HW,2013-04-29 21:20:00,
2013-04-29 17:25:00,55.8,45.0,30.12,East,90,2.5,3.4,67,0.00,,,0.00,WUHU216HW,2013-04-29 21:25:00,
2013-04-29 17:30:00,55.6,45.3,30.11,East,90,1.3,3.4,68,0.00,,,0.00,WUHU216HW,2013-04-29 21:30:00,
2013-04-29 17:35:00,55.4,44.6,30.12,SSE,158,2.0,3.4,67,0.00,,,0.00,WUHU216HW,2013-04-29 21:35:00,
2013-04-29 17:40:00,55.4,44.6,30.11,SE,135,0.2,3.4,67,0.00,,,0.00,WUHU216HW,2013-04-29 21:40:00,
2013-04-29 17:45:00,55.3,44.5,30.11,East,90,1.8,3.4,67,0.00,,,0.00,WUHU216HW,2013-04-29 21:45:00,
2013-04-29 17:50:00,55.1,44.3,30.11,South,180,2.2,6.0,67,0.00,,,0.00,WUHU216HW,2013-04-29 21:50:00,
2013-04-29 17:55:00,55.1,44.3,30.11,East,90,2.5,6.0,67,0.00,,,0.00,WUHU216HW,2013-04-29 21:55:00,
2013-04-29 18:00:00,55.1,44.3,30.12,SSW,203,4.5,4.5,67,0.00,,,0.00,WUHU216HW,2013-04-29 22:00:00,
2013-04-29 18:05:00,55.1,43.9,30.11,South,180,2.7,4.5,66,0.00,,,0.00,WUHU216HW,2013-04-29 22:05:00,
2013-04-29 18:10:00,55.1,44.3,30.11,South,180,0.4,3.8,67,0.00,,,0.00,WUHU216HW,2013-04-29 22:10:00,
2013-04-29 18:15:00,55.1,43.9,30.12,South,180,1.8,3.8,66,0.00,,,0.00,WUHU216HW,2013-04-29 22:15:00,
2013-04-29 18:20:00,55.1,43.9,30.11,SSE,158,2.7,3.1,66,0.00,,,0.00,WUHU216HW,2013-04-29 22:20:00,
2013-04-29 18:25:00,54.9,43.3,30.12,SE,135,1.3,2.7,65,0.00,,,0.00,WUHU216HW,2013-04-29 22:25:00,
2013-04-29 18:30:00,54.7,43.6,30.11,SE,135,1.1,2.7,66,0.00,,,0.00,WUHU216HW,2013-04-29 22:30:00,
2013-04-29 18:35:00,54.7,43.6,30.11,East,90,2.5,4.3,66,0.00,,,0.00,WUHU216HW,2013-04-29 22:35:00,
2013-04-29 18:40:00,54.7,43.1,30.11,ESE,113,1.3,4.3,65,0.00,,,0.00,WUHU216HW,2013-04-29 22:40:00,
2013-04-29 18:45:00,54.7,43.1,30.11,ENE,68,0.7,3.6,65,0.00,,,0.00,WUHU216HW,2013-04-29 22:45:00,
2013-04-29 18:50:00,54.7,43.1,30.11,SSE,158,0.4,3.6,65,0.00,,,0.00,WUHU216HW,2013-04-29 22:50:00,
2013-04-29 18:55:00,54.7,43.1,30.11,ENE,68,2.2,3.4,65,0.00,,,0.00,WUHU216HW,2013-04-29 22:55:00,
2013-04-29 19:00:00,54.5,42.6,30.11,SE,135,0.7,3.4,64,0.00,,,0.00,WUHU216HW,2013-04-29 23:00:00,
2013-04-29 19:06:00,54.4,42.0,30.11,SSE,158,2.5,2.5,63,0.00,,,0.00,WUHU216HW,2013-04-29 23:06:00,
2013-04-29 19:11:00,54.4,42.4,30.11,SSE,158,2.0,2.5,64,0.00,,,0.00,WUHU216HW,2013-04-29 23:11:00,
2013-04-29 19:16:00,54.4,42.0,30.11,ENE,68,0.4,2.0,63,0.00,,,0.00,WUHU216HW,2013-04-29 23:16:00,
2013-04-29 19:21:00,54.0,41.7,30.12,East,90,0.4,1.8,63,0.00,,,0.00,WUHU216HW,2013-04-29 23:21:00,
2013-04-29 19:26:00,54.0,41.7,30.12,East,90,1.1,1.8,63,0.00,,,0.00,WUHU216HW,2013-04-29 23:26:00,
2013-04-29 19:31:00,53.8,41.1,30.12,North,0,0.9,1.8,62,0.00,,,0.00,WUHU216HW,2013-04-29 23:31:00,
2013-04-29 19:36:00,53.6,41.0,30.12,SE,135,0.0,1.8,62,0.00,,,0.00,WUHU216HW,2013-04-29 23:36:00,
2013-04-29 19:41:00,53.6,40.5,30.12,SSE,158,0.4,2.5,61,0.00,,,0.00,WUHU216HW,2013-04-29 23:41:00,
2013-04-29 19:46:00,53.5,40.0,30.12,ESE,113,2.0,2.5,60,0.00,,,0.00,WUHU216HW,2013-04-29 23:46:00,
2013-04-29 19:51:00,53.5,39.5,30.12,SE,135,3.1,3.6,59,0.00,,,0.00,WUHU216HW,2013-04-29 23:51:00,
2013-04-29 19:56:00,53.3,39.3,30.12,ENE,68,0.7,3.6,59,0.00,,,0.00,WUHU216HW,2013-04-29 23:56:00,
2013-04-29 20:01:00,53.1,38.7,30.12,SSE,158,2.5,2.5,58,0.00,,,0.00,WUHU216HW,2013-04-30 00:01:00,
2013-04-29 20:06:00,53.1,38.7,30.12,SSE,158,2.2,2.5,58,0.00,,,0.00,WUHU216HW,2013-04-30 00:06:00,
2013-04-29 20:11:00,52.9,38.5,30.12,NE,45,0.4,2.5,58,0.00,,,0.00,WUHU216HW,2013-04-30 00:11:00,
2013-04-29 20:16:00,52.9,38.5,30.12,SE,135,1.1,2.9,58,0.00,,,0.00,WUHU216HW,2013-04-30 00:16:00,
2013-04-29 20:21:00,52.9,38.5,30.12,SSE,158,3.4,3.4,58,0.00,,,0.00,WUHU216HW,2013-04-30 00:21:00,
2013-04-29 20:26:00,52.9,38.1,30.12,SSW,203,1.8,3.4,57,0.00,,,0.00,WUHU216HW,2013-04-30 00:26:00,
2013-04-29 20:31:00,52.7,37.9,30.12,ESE,113,0.4,5.6,57,0.00,,,0.00,WUHU216HW,2013-04-30 00:31:00,
2013-04-29 20:36:00,52.7,37.5,30.13,East,90,1.3,5.6,56,0.00,,,0.00,WUHU216HW,2013-04-30 00:36:00,
2013-04-29 20:41:00,52.7,37.9,30.13,South,180,1.8,1.8,57,0.00,,,0.00,WUHU216HW,2013-04-30 00:41:00,
2013-04-29 20:46:00,52.7,37.9,30.13,SE,135,0.7,1.8,57,0.00,,,0.00,WUHU216HW,2013-04-30 00:46:00,
2013-04-29 20:51:00,52.6,37.3,30.13,East,90,2.0,2.0,56,0.00,,,0.00,WUHU216HW,2013-04-30 00:51:00,
2013-04-29 20:56:00,52.6,37.7,30.13,East,90,0.9,2.0,57,0.00,,,0.00,WUHU216HW,2013-04-30 00:56:00,
2013-04-29 21:01:00,52.6,37.3,30.13,NE,45,0.4,2.0,56,0.00,,,0.00,WUHU216HW,2013-04-30 01:01:00,
2013-04-29 21:06:00,52.6,37.7,30.13,SSE,158,0.2,1.8,57,0.00,,,0.00,WUHU216HW,2013-04-30 01:06:00,
2013-04-29 21:11:00,52.4,37.5,30.14,SE,135,1.6,2.2,57,0.00,,,0.00,WUHU216HW,2013-04-30 01:11:00,
2013-04-29 21:16:00,52.4,37.5,30.14,East,90,0.2,2.2,57,0.00,,,0.00,WUHU216HW,2013-04-30 01:16:00,
2013-04-29 21:21:00,52.2,37.4,30.14,East,90,1.1,1.6,57,0.00,,,0.00,WUHU216HW,2013-04-30 01:21:00,
2013-04-29 21:26:00,52.2,37.4,30.14,ENE,68,0.9,1.3,57,0.00,,,0.00,WUHU216HW,2013-04-30 01:26:00,
2013-04-29 21:31:00,52.2,37.4,30.15,ENE,68,1.3,2.7,57,0.00,,,0.00,WUHU216HW,2013-04-30 01:31:00,
2013-04-29 21:36:00,52.2,37.8,30.15,ENE,68,0.0,2.7,58,0.00,,,0.00,WUHU216HW,2013-04-30 01:36:00,
2013-04-29 21:41:00,52.2,37.8,30.15,NNE,23,0.4,2.5,58,0.00,,,0.00,WUHU216HW,2013-04-30 01:41:00,
2013-04-29 21:46:00,52.2,37.8,30.15,NNE,23,1.1,2.5,58,0.00,,,0.00,WUHU216HW,2013-04-30 01:46:00,
2013-04-29 21:51:00,52.2,38.3,30.15,ENE,68,2.9,2.9,59,0.00,,,0.00,WUHU216HW,2013-04-30 01:51:00,
2013-04-29 21:56:00,52.2,38.3,30.15,NNE,23,1.3,2.9,59,0.00,,,0.00,WUHU216HW,2013-04-30 01:56:00,
2013-04-29 22:01:00,52.2,38.7,30.15,ENE,68,0.9,2.7,60,0.00,,,0.00,WUHU216HW,2013-04-30 02:01:00,
2013-04-29 22:06:00,52.2,38.7,30.15,ENE,68,1.1,2.7,60,0.00,,,0.00,WUHU216HW,2013-04-30 02:06:00,
2013-04-29 22:11:00,52.2,39.2,30.15,ENE,68,0.2,3.4,61,0.00,,,0.00,WUHU216HW,2013-04-30 02:11:00,
2013-04-29 22:16:00,52.2,39.2,30.15,East,90,0.4,3.4,61,0.00,,,0.00,WUHU216HW,2013-04-30 02:16:00,
2013-04-29 22:21:00,52.0,39.0,30.15,ENE,68,1.1,1.8,61,0.00,,,0.00,WUHU216HW,2013-04-30 02:21:00,
2013-04-29 22:26:00,51.8,39.6,30.15,NE,45,0.7,1.8,63,0.00,,,0.00,WUHU216HW,2013-04-30 02:26:00,
2013-04-29 22:31:00,51.8,39.6,30.15,ENE,68,1.1,3.8,63,0.00,,,0.00,WUHU216HW,2013-04-30 02:31:00,
2013-04-29 22:36:00,51.8,40.0,30.15,SSW,203,1.1,3.8,64,0.00,,,0.00,WUHU216HW,2013-04-30 02:36:00,
2013-04-29 22:42:00,51.7,39.9,30.15,ESE,113,0.2,2.0,64,0.00,,,0.00,WUHU216HW,2013-04-30 02:42:00,
2013-04-29 22:47:00,51.7,39.9,30.15,ESE,113,0.4,2.0,64,0.00,,,0.00,WUHU216HW,2013-04-30 02:47:00,
2013-04-29 22:52:00,51.5,39.7,30.14,ESE,113,1.1,1.1,64,0.00,,,0.00,WUHU216HW,2013-04-30 02:52:00,
2013-04-29 22:57:00,51.3,39.5,30.15,ENE,68,1.1,1.8,64,0.00,,,0.00,WUHU216HW,2013-04-30 02:57:00,
2013-04-29 23:02:00,51.1,39.7,30.15,North,0,1.8,1.8,65,0.00,,,0.00,WUHU216HW,2013-04-30 03:02:00,
2013-04-29 23:07:00,51.1,40.2,30.15,NE,45,1.6,3.4,66,0.00,,,0.00,WUHU216HW,2013-04-30 03:07:00,
2013-04-29 23:12:00,51.1,40.2,30.15,ENE,68,2.2,3.4,66,0.00,,,0.00,WUHU216HW,2013-04-30 03:12:00,
2013-04-29 23:17:00,51.1,41.0,30.14,East,90,1.8,2.2,68,0.00,,,0.00,WUHU216HW,2013-04-30 03:17:00,
2013-04-29 23:22:00,51.1,40.5,30.14,ENE,68,0.9,1.8,67,0.00,,,0.00,WUHU216HW,2013-04-30 03:22:00,
2013-04-29 23:27:00,51.1,41.0,30.14,ENE,68,0.4,1.3,68,0.00,,,0.00,WUHU216HW,2013-04-30 03:27:00,
2013-04-29 23:32:00,50.9,40.8,30.14,NNE,23,2.2,4.0,68,0.00,,,0.00,WUHU216HW,2013-04-30 03:32:00,
2013-04-29 23:37:00,50.9,40.8,30.14,NNE,23,1.6,4.0,68,0.00,,,0.00,WUHU216HW,2013-04-30 03:37:00,
2013-04-29 23:42:00,50.8,40.6,30.14,NNW,338,0.4,2.2,68,0.00,,,0.00,WUHU216HW,2013-04-30 03:42:00,
2013-04-29 23:47:00,50.8,40.6,30.14,North,0,1.6,1.6,68,0.00,,,0.00,WUHU216HW,2013-04-30 03:47:00,
2013-04-29 23:52:00,50.8,40.6,30.14,ENE,68,0.0,2.5,68,0.00,,,0.00,WUHU216HW,2013-04-30 03:52:00,
2013-04-29 23:57:00,50.8,41.1,30.14,NE,45,2.0,2.5,69,0.00,,,0.00,WUHU216HW,2013-04-30 03:57:00,